Weather History for Sparta, TN

Change the Weather History Date:

Wednesday, September 4, 2013

  Actual Average (KCSV) Record (KCSV)
Temperature  
Mean Temperature 68 °F 71 °F  
Max Temperature 82 °F 81 °F 98 °F (1954)
Min Temperature 53 °F 61 °F 48 °F (1997)
Degree Days  
Heating Degree Days 0    
Month to date heating degree days  
Since 1 July heating degree days  
Cooling Degree Days 2    
Month to date cooling degree days  
Year to date cooling degree days  
Growing Degree Days 18 (Base 50)    
Moisture  
Dew Point 59 °F    
Average Humidity 79    
Maximum Humidity 100    
Minimum Humidity 47    
Precipitation  
Precipitation 0.00 in 0.12 in 1.46 in (2011)
Month to date precipitation 0.48  
Year to date precipitation 38.60  
Sea Level Pressure  
Sea Level Pressure 30.12 in    
Wind  
Wind Speed 1 mph (North)    
Max Wind Speed 6 mph    
Max Gust Speed -    
Visibility 7 miles    
Events      
T = Trace of Precipitation, MM = Missing Value Source: NWS Daily Summary

Daily Weather History Graph

Daily Weather History Graph

Search for Another Location

Airport:

Trip Planner

Search our weather history database for the weather conditions in past years. The results will help you decide how hot, cold, wet, or windy it might be!

Date:

Astronomy

Sep. 04, 2013 Rise Set
Actual Time 6:16 AM CDT 7:05 PM CDT
Civil Twilight 5:50 AM CDT 7:31 PM CDT
Nautical Twilight 5:19 AM CDT 8:01 PM CDT
Astronomical Twilight 4:47 AM CDT 8:33 PM CDT
Moon 5:27 AM CDT (9/4) 6:25 PM CDT (9/4)
Length of Visible Light 13h 40m
Length of Day
12h 48m
Waning Crescent, 1% of the Moon is Illuminated
Sep 4
Waning Crescent
Sep 5
New
Sep 12
First Quarter
Sep 19
Full
Sep 26
Last Quarter

Hourly Weather History & Observations

Time (CDT) Temp. Heat Index Dew Point Humidity Pressure Visibility Wind Dir Wind Speed Gust Speed Precip Events Conditions
12:35 AM 60.8 °F - 59.0 °F 94% 30.07 in 0.8 mi Calm Calm - N/A   Unknown
12:55 AM 59.0 °F - 57.2 °F 94% 30.07 in 4.0 mi Calm Calm - N/A   Clear
1:15 AM 59.0 °F - 59.0 °F 100% 30.06 in 0.2 mi Calm Calm - N/A   Unknown
1:35 AM 57.2 °F - 57.2 °F 100% 30.06 in 1.2 mi Calm Calm - N/A   Unknown
1:55 AM 59.0 °F - 57.2 °F 94% 30.06 in 3.0 mi Calm Calm - N/A   Clear
2:15 AM 57.2 °F - 57.2 °F 100% 30.06 in 0.5 mi Calm Calm - N/A   Unknown
2:35 AM 57.2 °F - 57.2 °F 100% 30.06 in 1.2 mi Calm Calm - N/A   Unknown
2:55 AM 57.2 °F - 57.2 °F 100% 30.06 in 0.8 mi Calm Calm - N/A   Unknown
3:15 AM 55.4 °F - 55.4 °F 100% 30.06 in 1.2 mi Calm Calm - N/A   Clear
3:35 AM 55.4 °F - 55.4 °F 100% 30.06 in 0.5 mi Calm Calm - N/A   Unknown
3:55 AM 55.4 °F - 55.4 °F 100% 30.06 in 0.8 mi Calm Calm - N/A   Unknown
4:15 AM 55.4 °F - 55.4 °F 100% 30.06 in 1.8 mi Calm Calm - N/A   Clear
4:35 AM 55.4 °F - 55.4 °F 100% 30.06 in 0.5 mi Calm Calm - N/A   Unknown
4:55 AM 55.4 °F - 55.4 °F 100% 30.06 in 0.2 mi Calm Calm - N/A   Unknown
5:15 AM 55.4 °F - 55.4 °F 100% 30.07 in 0.2 mi Calm Calm - N/A   Unknown
5:35 AM 55.4 °F - 53.6 °F 94% 30.08 in 2.0 mi Calm Calm - N/A   Clear
5:55 AM 53.6 °F - 53.6 °F 100% 30.09 in 0.5 mi Calm Calm - N/A   Unknown
6:15 AM 55.4 °F - 53.6 °F 94% 30.10 in 0.2 mi Calm Calm - N/A   Overcast
6:35 AM 55.4 °F - 53.6 °F 94% 30.11 in 0.5 mi Calm Calm - N/A   Mostly Cloudy
6:55 AM 57.2 °F - 57.2 °F 100% 30.12 in 8.0 mi Calm Calm - N/A   Unknown
7:15 AM 59.0 °F - 57.2 °F 94% 30.12 in 10.0 mi Calm Calm - N/A   Clear
7:35 AM 60.8 °F - 59.0 °F 94% 30.12 in 10.0 mi Calm Calm - N/A   Clear
7:55 AM 64.4 °F - 60.8 °F 88% 30.13 in 10.0 mi Calm Calm - N/A   Clear
8:15 AM 66.2 °F - 60.8 °F 83% 30.13 in 10.0 mi Calm Calm - N/A   Clear
8:35 AM 66.2 °F - 62.6 °F 88% 30.14 in 10.0 mi Calm Calm - N/A   Clear
8:55 AM 69.8 °F - 62.6 °F 78% 30.14 in 10.0 mi Calm Calm - N/A   Clear
9:15 AM 71.6 °F - 62.6 °F 73% 30.15 in 10.0 mi North 3.5 mph - N/A   Clear
9:35 AM 71.6 °F - 62.6 °F 73% 30.15 in 10.0 mi Calm Calm - N/A   Clear
9:55 AM 73.4 °F - 64.4 °F 73% 30.15 in 10.0 mi Variable 3.5 mph - N/A   Clear
10:15 AM 73.4 °F - 62.6 °F 69% 30.16 in 10.0 mi NE 3.5 mph - N/A   Clear
10:35 AM 75.2 °F - 60.8 °F 61% 30.16 in 10.0 mi East 4.6 mph - N/A   Partly Cloudy
10:55 AM 78.8 °F - 60.8 °F 54% 30.16 in 10.0 mi Variable 4.6 mph - N/A   Scattered Clouds
11:15 AM 77.0 °F - 60.8 °F 57% 30.16 in 10.0 mi East 3.5 mph - N/A   Partly Cloudy
11:35 AM 77.0 °F - 59.0 °F 54% 30.16 in 10.0 mi ENE 5.8 mph - N/A   Clear
11:55 AM 78.8 °F - 57.2 °F 47% 30.15 in 10.0 mi Calm Calm - N/A   Clear
12:15 PM 78.8 °F - 57.2 °F 47% 30.15 in 10.0 mi Calm Calm - N/A   Clear
12:35 PM 78.8 °F - 59.0 °F 51% 30.15 in 10.0 mi Variable 4.6 mph - N/A   Clear
12:55 PM 80.6 °F 81.1 °F 59.0 °F 48% 30.14 in 10.0 mi North 4.6 mph - N/A   Clear
1:15 PM 80.6 °F 81.1 °F 59.0 °F 48% 30.14 in 10.0 mi NNW 4.6 mph - N/A   Clear
1:35 PM 80.6 °F 81.1 °F 59.0 °F 48% 30.14 in 10.0 mi Calm Calm - N/A   Clear
1:55 PM 80.6 °F 81.1 °F 59.0 °F 48% 30.13 in 10.0 mi WNW 4.6 mph - N/A   Clear
2:15 PM 82.4 °F 82.9 °F 60.8 °F 48% 30.12 in 10.0 mi Variable 3.5 mph - N/A   Clear
2:35 PM 82.4 °F 82.9 °F 60.8 °F 48% 30.12 in 10.0 mi NNW 5.8 mph - N/A   Clear
2:55 PM 80.6 °F 81.5 °F 60.8 °F 51% 30.12 in 10.0 mi Variable 4.6 mph - N/A   Clear
3:15 PM 80.6 °F 81.5 °F 60.8 °F 51% 30.12 in 10.0 mi North 3.5 mph - N/A   Clear
3:35 PM 80.6 °F 81.5 °F 60.8 °F 51% 30.11 in 10.0 mi North 4.6 mph - N/A   Clear
3:55 PM 82.4 °F 82.9 °F 60.8 °F 48% 30.11 in 10.0 mi North 4.6 mph - N/A   Clear
4:15 PM 80.6 °F 81.5 °F 60.8 °F 51% 30.11 in 10.0 mi Variable 3.5 mph - N/A   Clear
4:35 PM 80.6 °F 81.5 °F 60.8 °F 51% 30.11 in 7.0 mi Calm Calm - N/A   Clear
4:55 PM 78.8 °F - 60.8 °F 54% 30.11 in 10.0 mi North 4.6 mph - N/A   Clear
5:15 PM 78.8 °F - 60.8 °F 54% 30.11 in 10.0 mi North 4.6 mph - N/A   Clear
5:35 PM 78.8 °F - 60.8 °F 54% 30.11 in 10.0 mi NNW 4.6 mph - N/A   Clear
5:55 PM 77.0 °F - 62.6 °F 61% 30.11 in 10.0 mi NNW 5.8 mph - N/A   Clear
6:15 PM 75.2 °F - 62.6 °F 65% 30.11 in 10.0 mi North 3.5 mph - N/A   Clear
6:35 PM 75.2 °F - 62.6 °F 65% 30.11 in 10.0 mi Calm Calm - N/A   Clear
6:55 PM 73.4 °F - 62.6 °F 69% 30.11 in 10.0 mi Calm Calm - N/A   Clear
7:15 PM 68.0 °F - 62.6 °F 83% 30.12 in 10.0 mi Calm Calm - N/A   Clear
7:35 PM 64.4 °F - 62.6 °F 94% 30.12 in 10.0 mi Calm Calm - N/A   Clear
7:55 PM 62.6 °F - 60.8 °F 94% 30.12 in 10.0 mi Calm Calm - N/A   Clear
8:15 PM 62.6 °F - 59.0 °F 88% 30.13 in 10.0 mi Calm Calm - N/A   Clear
8:35 PM 60.8 °F - 59.0 °F 94% 30.14 in 10.0 mi Calm Calm - N/A   Clear
8:55 PM 60.8 °F - 60.8 °F 100% 30.15 in 10.0 mi Calm Calm - N/A   Clear
9:15 PM 60.8 °F - 59.0 °F 94% 30.15 in 10.0 mi Calm Calm - N/A   Clear
9:35 PM 60.8 °F - 60.8 °F 100% 30.15 in 10.0 mi Calm Calm - N/A   Clear
9:55 PM 60.8 °F - 60.8 °F 100% 30.16 in 10.0 mi Calm Calm - N/A   Clear
10:15 PM 60.8 °F - 57.2 °F 88% 30.16 in 10.0 mi Calm Calm - N/A   Clear
10:35 PM 60.8 °F - 60.8 °F 100% 30.17 in 9.0 mi Calm Calm - N/A   Clear
10:55 PM 59.0 °F - 59.0 °F 100% 30.17 in 6.0 mi Calm Calm - N/A   Clear
11:15 PM 57.2 °F - 57.2 °F 100% 30.17 in 7.0 mi Calm Calm - N/A   Clear
11:35 PM 57.2 °F - 55.4 °F 94% 30.17 in 10.0 mi Calm Calm - N/A   Clear
11:55 PM 57.2 °F - 55.4 °F 94% 30.16 in 1.2 mi Calm Calm - N/A   Clear